College Station, TX

8:31 PM CDT on June 25, 2017 (GMT -0500)
Easterwood

Weather History for KCLL - November, 2010

Change the Weather History Date:

Tuesday, November 23, 2010

  Actual Average Record
Temperature  
Mean Temperature 78 °F 58 °F  
Max Temperature 86 °F 68 °F 86 °F (2010)
Min Temperature 69 °F 48 °F 23 °F (1975)
Degree Days  
Heating Degree Days 0 8  
Month to date heating degree days 112 122  
Since 1 July heating degree days 124 159  
Cooling Degree Days 13 1  
Month to date cooling degree days 67 53  
Year to date cooling degree days 3382 3065  
Growing Degree Days 26 (Base 50)    
Moisture  
Dew Point 68 °F    
Average Humidity 76    
Maximum Humidity 97    
Minimum Humidity 55    
Precipitation  
Precipitation 0.00 in 0.10 in 2.69 in (1940)
Month to date precipitation 0.73 2.50  
Year to date precipitation 26.80 36.11  
Sea Level Pressure  
Sea Level Pressure 29.98 in    
Wind  
Wind Speed 8 mph (South)    
Max Wind Speed 18 mph    
Max Gust Speed 24 mph    
Visibility 9 miles    
Events      
T = Trace of Precipitation, MM = Missing Value Source: NWS Daily Summary

Daily Weather History Graph

Daily Weather History Graph

Search for Another Location

Airport or City:

Trip Planner

Search our weather history database for the weather conditions in past years. The results will help you decide how hot, cold, wet, or windy it might be!

Date:

Astronomy

Nov. 23, 2010 Rise Set
Actual Time 6:58 AM CST 5:25 PM CST
Civil Twilight 6:32 AM CST 5:51 PM CST
Nautical Twilight 6:03 AM CST 6:20 PM CST
Astronomical Twilight 5:34 AM CST 6:49 PM CST
Moon 7:13 PM CST (11/23) 8:50 AM CST (11/23)
Length of Visible Light 11h 18m
Length of Day
10h 26m
Waning Gibbous, 96% of the Moon is Illuminated
Nov 23
Waning Gibbous
Nov 28
Last Quarter
Dec 5
New
Dec 13
First Quarter
Dec 21
Full

Hourly Weather History & Observations

Time (CST) Temp. Heat Index Dew Point Humidity Pressure Visibility Wind Dir Wind Speed Gust Speed Precip Events Conditions
12:53 AM 73.0 °F - 69.1 °F 87% 29.99 in 10.0 mi South 8.1 mph - N/A   Overcast
1:53 AM 72.0 °F - 69.1 °F 91% 29.99 in 9.0 mi South 5.8 mph - N/A   Mostly Cloudy
2:53 AM 72.0 °F - 69.1 °F 91% 29.99 in 9.0 mi South 5.8 mph - N/A   Overcast
3:53 AM 72.0 °F - 69.1 °F 91% 29.98 in 9.0 mi South 4.6 mph - N/A   Mostly Cloudy
4:53 AM 71.1 °F - 69.1 °F 93% 29.99 in 9.0 mi Calm Calm - N/A   Overcast
5:26 AM 71.6 °F - 68.0 °F 88% 30.00 in 8.0 mi Calm Calm - N/A   Overcast
5:53 AM 71.1 °F - 69.1 °F 93% 30.00 in 8.0 mi South 3.5 mph - N/A   Overcast
6:06 AM 71.6 °F - 69.8 °F 94% 30.02 in 8.0 mi SSE 3.5 mph - N/A   Overcast
6:53 AM 69.1 °F - 66.9 °F 93% 30.00 in 5.0 mi Calm Calm - N/A   Clear
7:42 AM 69.8 °F - 68.0 °F 94% 30.03 in 4.0 mi Calm Calm - N/A   Mostly Cloudy
7:53 AM 70.0 °F - 68.0 °F 93% 30.02 in 4.0 mi Calm Calm - N/A   Overcast
8:19 AM 71.6 °F - 69.8 °F 94% 30.04 in 4.0 mi SE 3.5 mph - N/A   Overcast
8:53 AM 72.0 °F - 70.0 °F 93% 30.04 in 7.0 mi SE 4.6 mph - N/A   Mostly Cloudy
9:53 AM 75.0 °F - 69.1 °F 82% 30.04 in 9.0 mi South 6.9 mph - N/A   Overcast
10:53 AM 77.0 °F - 69.1 °F 76% 30.04 in 10.0 mi SSW 6.9 mph - N/A   Mostly Cloudy
11:53 AM 80.1 °F 82.7 °F 68.0 °F 67% 30.01 in 10.0 mi Variable 5.8 mph 18.4 mph N/A   Mostly Cloudy
12:14 PM 82.4 °F 85.4 °F 68.0 °F 62% 30.01 in 10.0 mi South 11.5 mph - N/A   Mostly Cloudy
12:24 PM 82.4 °F 84.6 °F 66.2 °F 58% 30.00 in 10.0 mi SSW 9.2 mph - N/A   Scattered Clouds
12:53 PM 82.4 °F 84.6 °F 66.2 °F 58% 29.99 in 10.0 mi SSW 9.2 mph 17.3 mph N/A   Scattered Clouds
1:53 PM 82.4 °F 84.6 °F 66.2 °F 58% 29.96 in 10.0 mi South 9.2 mph - N/A   Mostly Cloudy
2:53 PM 84.0 °F 86.5 °F 66.9 °F 56% 29.93 in 10.0 mi South 9.2 mph - N/A   Partly Cloudy
3:53 PM 84.0 °F 86.5 °F 66.9 °F 56% 29.92 in 10.0 mi South 16.1 mph 21.9 mph N/A   Clear
4:53 PM 82.0 °F 84.5 °F 66.9 °F 60% 29.92 in 10.0 mi South 11.5 mph - N/A   Clear
5:53 PM 79.0 °F - 66.0 °F 64% 29.92 in 10.0 mi South 12.7 mph - N/A   Clear
6:53 PM 75.9 °F - 66.0 °F 71% 29.94 in 10.0 mi SSE 9.2 mph - N/A   Clear
7:53 PM 75.0 °F - 68.0 °F 79% 29.94 in 10.0 mi South 11.5 mph - N/A   Clear
8:53 PM 73.9 °F - 69.1 °F 85% 29.95 in 10.0 mi South 11.5 mph - N/A   Clear
9:53 PM 73.0 °F - 70.0 °F 90% 29.96 in 10.0 mi South 12.7 mph - N/A   Scattered Clouds
10:02 PM 73.4 °F - 69.8 °F 88% 29.97 in 10.0 mi South 16.1 mph - N/A   Mostly Cloudy
10:14 PM 73.4 °F - 69.8 °F 88% 29.97 in 10.0 mi South 15.0 mph - N/A   Overcast
10:53 PM 73.0 °F - 69.1 °F 87% 29.95 in 10.0 mi South 11.5 mph - N/A   Mostly Cloudy
11:01 PM 73.4 °F - 69.8 °F 88% 29.96 in 10.0 mi South 11.5 mph - N/A   Mostly Cloudy
11:53 PM 73.9 °F - 69.1 °F 85% 29.94 in 10.0 mi South 15.0 mph - N/A   Mostly Cloudy